Regional Weather Roundup
Issued by NWS

Home | Current Version | Previous Version | Text Only | Print | Product List | Glossary On
Versions: 1 2 3 4 5 6 7 8 9 10 11 12 13 14 15 16 17 18 19 20 21 22 23 24 25 26 27 28 29 30 31 32 33 34 35 36 37 38 39 40 41 42 43 44 45 46 47 48 49 50
000
ASUS44 KLIX 301911
RWRLA
LOUISIANA WEATHER ROUNDUP
NATIONAL WEATHER SERVICE NEW ORLEANS LA
200 PM CDT THU JUL 30 2015

NOTE: "FAIR" INDICATES FEW OR NO CLOUDS BELOW 12,000 FEET WITH NO
      SIGNIFICANT WEATHER AND/OR OBSTRUCTIONS TO VISIBILITY.
      SKY/WX - SKY CONDITION AND SIGNIFICANT WEATHER.
      TMP - AIR TEMPERATURE.    DP   - DEWPOINT TEMPERATURE.
      RH  - RELATIVE HUMIDITY.  PRES - PRESSURE.
      HX  - HEAT INDEX.         WCI  - WIND CHILL INDEX.

*  THESE STATIONS ARE NOT NWS OR FAA STATIONS AND ARE NOT UNDER
   NWS QUALITY CONTROL.

LAZ040-048-061>063-065-066-069-302000-
SOUTHEAST LOUISIANA

CITY           SKY/WX    TMP DP  RH WIND       PRES   REMARKS
N.O. AUDUBON   NOT AVBL
N.O. INTL ARPT PTSUNNY   94  72  48 VRB7      29.99F HX 102
N.O. LAKEFRONT MOSUNNY   90  77  65 NW7       29.99F HX 103
N.O. DOWNTOWN* FAIR      93  73  52 N8        30.00F HX 102
RESERVE*       FAIR      98  74  45 N5        29.99F HX 109
SLIDELL        MOSUNNY   95  79  59 N8        29.97F HX 112
BATON ROUGE    MOSUNNY   97  74  47 CALM      29.99F HX 108
BOOTHVILLE     MOSUNNY   91  76  61 NE6       30.00S HX 103
BELLE CHASSE   PTSUNNY   93  74  53 NE7       29.98F HX 103
BOGALUSA*        N/A     95  76  54 N3        29.99F HX 108
GALLIANO*      NOT AVBL
NEW ROADS*     FAIR     N/A N/A N/A NW8       29.99F
GONZALES*      FAIR      96  75  51 NE5       29.98F HX 108
HAMMOND*       MOSUNNY   99  72  41 NE3       29.99F HX 107
HOUMA*         SUNNY     91  75  59 NE7       30.00F HX 102
PORT FOURCHON* CLEAR     90  77  66 VRB5      30.01S HX 102

$$

LAZ041-044-053-054-302000-
SOUTHWEST LOUISIANA

CITY           SKY/WX    TMP DP  RH WIND       PRES   REMARKS
LAKE CHARLES   MOSUNNY  101  72  39 NE8       30.00F HX 110
LAFAYETTE      MOSUNNY   99  73  43 N10       30.00F HX 109
PATTERSON      PTSUNNY   91  77  62 NE7       30.02F HX 105
SALT POINT       N/A     93  78  61 SE3       30.00S HX 108
NEW IBERIA     MOSUNNY   99  74  44 NE7       30.01F HX 110
CHENAULT AIRPK MOSUNNY   99  73  44 E7        30.01F HX 109

$$

LAZ027-028-302000-
CENTRAL LOUISIANA

CITY           SKY/WX    TMP DP  RH WIND       PRES   REMARKS
FORT POLK      MOSUNNY   98  74  45 VRB7      30.01F HX 108
ALEXANDRIA INT   N/A    N/A N/A N/A MISG        N/A
ALEXANDRIA     MOSUNNY  102  72  37 E6        30.00F HX 112

$$

LAZ001-002-302000-
NORTHWEST LOUISIANA

CITY           SKY/WX    TMP DP  RH WIND       PRES   REMARKS
SHREVEPORT     MOSUNNY  102  71  36 N10       30.03F HX 111
BARKSDALE AFB  MOSUNNY  101  69  34 N9        30.03F HX 108
DTN SHREVEPORT MOSUNNY   99  70  38 N7        30.03F HX 106

$$

LAZ014-016-302000-
NORTHEAST LOUISIANA

CITY           SKY/WX    TMP DP  RH WIND       PRES   REMARKS
MONROE         TSTM      82  74  76 NE12G20   30.08R
TALLULAH       SUNNY    100  76  46 N13G20    30.01F THUNDER HX 114

$$




USA.gov is the U.S. government's official web portal to all federal, state and local government web resources and services.